Location: Eaton Estates
(41.3089°N, 82.0057°W)
Time: 11:45:43
(UTC+00:00)

Cosmos 1943 Rocket - Pass Details

Date: 17 June 2021
Orbit: 813 x 843 km, 71.0° (Epoch: 26 July)

Event Time Altitude Azimuth Distance (km) Brightness Sun altitude
Rises 07:24:14 0° 323° (NW) 3,344 5.7 -20.0°
Reaches altitude 10° 07:27:02 10° 311° (NW) 2,409 4.7 -19.8°
Maximum altitude 07:31:24 25° 258° (WSW) 1,609 3.3 -19.4°
Enters shadow 07:31:35 25° 255° (WSW) 1,611 3.3 -19.3°
